Details for UPS at KMIA




Go Back


Latest METAR
Local Time

KMIA 180553Z 35004KT 10SM SCT023 BKN050 BKN100 BKN250 28/25 A3014 RMK AO2 LTG DSNT N TSB15E45 SLP206 CB DSNT N-NE AND NW MOV NW T02780250 10294 20278 58005
18/08/2018, 02:29:25

Description
Results
UPS Logo
Number of Pilots based at KMIA
0 Pilots Based here
Number of UPS Flights Departed from KMIA
0 Flights Departed
Number of UPS Flights Arrived at KMIA
0 Flights Arrived
Number of UPS Schedules Departing from KMIA
91 Schedules
Number of UPS Schedules Arriving at KMIA
99 Schedules
Number of UPS Schedules Departing from KMIA availible today
8 Schedules Today
Number of UPS Schedules Arriving at KMIA availible today
9 Schedules Today
Average Landing Rate at KMIA
-188 fpm
UPS Average Landing Rate at KMIA
0 fpm
Total Fuel Purchased at KMIA by UPS
0.00 kgs / 0.00 lbs

Pilots Based at KMIA


Pilot ID
Pilot Name
Pilot Rank
No. of Flights
No. of Flying Hours
There are no pilots assigned to this hub!   Will you be the first?
Content